Location: Unspecified
(0.0000°N, 0.0000°E)
Time: 19:12:54
(UTC+01:00)

USA 116 - Visible Passes

Search period start: 20 January 2017 00:00
Search period end: 30 January 2017 00:00
Orbit: 405 x 834 km, 97.9° (Epoch: 18 November)

Date Brightness Start Highest point End Pass type
(mag) Time Alt. Az. Time Alt. Az. Time Alt. Az.
20 Jan 5.3 05:38:23 10° SSE 05:43:34 50° ENE 05:48:26 10° N visible
21 Jan 4.6 05:51:58 10° SSE 05:57:19 75° ENE 06:02:18 10° N visible
22 Jan 4.3 06:05:44 10° S 06:11:04 75° WSW 06:16:01 10° NNW visible
23 Jan 4.6 06:19:39 10° S 06:24:46 50° WSW 06:29:32 10° NNW visible
24 Jan 7.0 04:59:57 10° ESE 05:02:50 15° E 05:05:36 10° NE visible
24 Jan 5.1 06:33:46 10° SSW 06:38:28 33° WSW 06:42:52 10° NW visible
25 Jan 6.6 05:12:40 10° SE 05:16:36 22° E 05:20:19 10° NNE visible
26 Jan 5.9 05:25:47 10° SE 05:30:22 32° E 05:34:36 10° NNE visible
27 Jan 5.2 05:39:10 10° SSE 05:44:08 48° E 05:48:38 10° N visible
28 Jan 4.4 05:52:45 10° SSE 05:57:53 74° ENE 06:02:30 10° N visible
29 Jan 4.2 06:06:30 10° S 06:11:36 73° WSW 06:16:10 10° NNW visible
